This is the latest recevied weather packets stored in our database for station/object S51UL-6. If no packets are shown the sender has not sent any weather packets the latest 10 day(s).
| Time | Temp. | Humidity | Pressure | Rain* | Wind** | Luminosity | Snow |
|---|---|---|---|---|---|---|---|
| 1788372675 | 20.56° C | 72% | 1019.6 hPa | 0 mm | - | - | - |
| 1788372377 | 20.56° C | 71% | 1019.7 hPa | 0 mm | - | - | - |
| 1788372076 | 21.11° C | 71% | 1019.5 hPa | 0 mm | - | - | - |
| 1788371776 | 21.11° C | 71% | 1019.3 hPa | 0 mm | - | - | - |
| 1788371476 | 21.11° C | 70% | 1019.2 hPa | 0 mm | - | - | - |
| 1788371176 | 21.67° C | 69% | 1019.1 hPa | 0 mm | - | - | - |
| 1788370877 | 21.67° C | 69% | 1019.1 hPa | 0 mm | - | - | - |
| 1788370576 | 22.22° C | 68% | 1019.1 hPa | 0 mm | - | - | - |
| 1788370276 | 22.22° C | 67% | 1019 hPa | 0 mm | - | - | - |
| 1788369976 | 22.78° C | 67% | 1018.9 hPa | 1.52 mm | - | - | - |
| 1788369076 | 23.33° C | 64% | 1018.8 hPa | 1.52 mm | - | - | - |
| 1788368778 | 23.89° C | 63% | 1018.9 hPa | 2.54 mm | - | - | - |
| 1788368478 | 23.89° C | 62% | 1018.9 hPa | 2.54 mm | - | - | - |
| 1788368177 | 24.44° C | 62% | 1019 hPa | 2.54 mm | - | - | - |
| 1788367577 | 24.44° C | 61% | 1019.1 hPa | 2.54 mm | - | - | - |
| 1788367277 | 25° C | 61% | 1019.2 hPa | 3.05 mm | - | - | - |
| 1788366977 | 25° C | 61% | 1019 hPa | 3.56 mm | - | - | - |
| 1788366378 | 25° C | 59% | 1019.3 hPa | 3.56 mm | - | - | - |
| 1788366081 | 25.56° C | 58% | 1019.4 hPa | 4.06 mm | - | - | - |
| 1788365777 | 25.56° C | 57% | 1019.3 hPa | 4.06 mm | - | - | - |
| 1788365178 | 26.11° C | 56% | 1019.4 hPa | 6.1 mm | - | - | - |
| 1788364877 | 26.11° C | 56% | 1019.2 hPa | 9.4 mm | - | - | - |
| 1788364578 | 26.11° C | 56% | 1019.2 hPa | 9.4 mm | - | - | - |
| 1788364278 | 26.67° C | 55% | 1019.1 hPa | 9.4 mm | - | - | - |
| 1788363977 | 26.67° C | 55% | 1019 hPa | 8.89 mm | - | - | - |
* Rain latest hour (hover to see other rain measurements)
** Current wind speed in m/s (hover to see current wind gust speed)